When you browse on this site, cookies collect data to enhance your experience and personalize the content and advertising you see.
Visit our Privacy Policy to learn more. By continuing to use the site, you agree to this use of cookies and data.
  • In Norway
  • List of Countries
  • For 7 days
  • Water Temperature
  • Satellite Maps
  • Weather Map
  • Weather Widgets
  • user-avatar
    Login

    Hourly Weather Sydney

    Today, 24 March, Sunday

    Time Temperature Precipitation Wind Pressure Humidity
    00:00 +24°C° 0 mm 3 mps 758 mmHg 86%
    01:00 +24°C° 0 mm 3 mps 758 mmHg 87%
    02:00 +24°C° 0 mm 3 mps 758 mmHg 86%
    03:00 +24°C° 0 mm 2 mps 757 mmHg 85%
    04:00 +24°C° 0 mm 2 mps 757 mmHg 86%
    05:00 +24°C° 0 mm 2 mps 757 mmHg 85%
    06:00 +24°C° 0 mm 1 mps 757 mmHg 84%
    07:00 +24°C° 0 mm 1 mps 758 mmHg 83%
    08:00 +27°C° 0 mm 1 mps 758 mmHg 71%
    09:00 +29°C° 0 mm 1 mps 758 mmHg 60%
    10:00 +31°C° 0 mm 1 mps 758 mmHg 48%
    11:00 +32°C° 0 mm 2 mps 757 mmHg 44%
    12:00 +34°C° 0 mm 2 mps 757 mmHg 40%
    13:00 +35°C° 0 mm 3 mps 757 mmHg 35%
    14:00 +34°C° 0 mm 3 mps 756 mmHg 40%
    15:00 +33°C° 0 mm 4 mps 756 mmHg 45%
    16:00 +30°C° 0 mm 4 mps 756 mmHg 49%
    17:00 +29°C° 0 mm 4 mps 756 mmHg 54%
    18:00 +29°C° 0 mm 3 mps 756 mmHg 58%
    19:00 +28°C° 0 mm 3 mps 757 mmHg 63%
    20:00 +27°C° 0 mm 2 mps 757 mmHg 65%
    21:00 +27°C° 0 mm 2 mps 757 mmHg 68%
    22:00 +26°C° 0 mm 1 mps 757 mmHg 71%
    23:00 +26°C° 0 mm 1 mps 757 mmHg 73%

    Tomorrow, 25 March, Monday

    Time Temperature Precipitation Wind Pressure Humidity
    00:00 +25°C° 0 mm 1 mps 757 mmHg 74%
    01:00 +23°C° 0 mm 0 mps 756 mmHg 76%
    02:00 +23°C° 0 mm 0 mps 756 mmHg 77%
    03:00 +25°C° 0 mm 1 mps 756 mmHg 78%
    04:00 +24°C° 0 mm 1 mps 755 mmHg 79%
    05:00 +24°C° 0.3 mm 2 mps 756 mmHg 79%
    06:00 +24°C° 0.3 mm 3 mps 756 mmHg 80%
    07:00 +23°C° 0.3 mm 4 mps 756 mmHg 80%
    08:00 +23°C° 0.2 mm 4 mps 756 mmHg 78%
    09:00 +25°C° 0.2 mm 5 mps 756 mmHg 77%
    10:00 +25°C° 0.2 mm 5 mps 756 mmHg 75%
    11:00 +27°C° 0.2 mm 6 mps 756 mmHg 69%
    12:00 +29°C° 0.2 mm 6 mps 755 mmHg 62%
    13:00 +30°C° 0.2 mm 7 mps 755 mmHg 55%
    14:00 +32°C° 0 mm 7 mps 755 mmHg 53%
    15:00 +32°C° 0 mm 7 mps 755 mmHg 52%
    16:00 +32°C° 0 mm 7 mps 755 mmHg 50%
    17:00 +30°C° 0 mm 6 mps 756 mmHg 54%
    18:00 +29°C° 0 mm 5 mps 756 mmHg 57%
    19:00 +28°C° 0 mm 3 mps 757 mmHg 60%
    20:00 +27°C° 0 mm 4 mps 757 mmHg 61%
    21:00 +26°C° 0 mm 4 mps 758 mmHg 62%
    22:00 +25°C° 0 mm 4 mps 759 mmHg 64%
    23:00 +23°C° 0 mm 4 mps 759 mmHg 61%

    Day after tomorrow, 26 March, Tuesday

    Time Temperature Precipitation Wind Pressure Humidity
    00:00 +23°C° 0 mm 5 mps 759 mmHg 59%
    01:00 +22°C° 0 mm 5 mps 759 mmHg 57%
    02:00 +21°C° 0 mm 6 mps 760 mmHg 55%
    03:00 +21°C° 0 mm 7 mps 760 mmHg 52%
    04:00 +20°C° 0 mm 7 mps 760 mmHg 50%
    05:00 +18°C° 0 mm 7 mps 761 mmHg 48%
    06:00 +17°C° 0 mm 7 mps 761 mmHg 47%
    07:00 +16°C° 0 mm 7 mps 762 mmHg 46%
    08:00 +17°C° 0 mm 7 mps 762 mmHg 41%
    09:00 +20°C° 0 mm 7 mps 763 mmHg 37%
    10:00 +21°C° 0 mm 7 mps 763 mmHg 32%
    11:00 +22°C° 0 mm 6 mps 763 mmHg 29%
    12:00 +23°C° 0 mm 5 mps 763 mmHg 26%
    13:00 +26°C° 0 mm 5 mps 762 mmHg 23%
    14:00 +25°C° 0 mm 5 mps 762 mmHg 27%
    15:00 +25°C° 0 mm 5 mps 762 mmHg 30%
    16:00 +25°C° 0 mm 5 mps 762 mmHg 33%
    17:00 +23°C° 0 mm 5 mps 763 mmHg 39%
    18:00 +21°C° 0 mm 5 mps 764 mmHg 45%
    19:00 +20°C° 0 mm 5 mps 764 mmHg 51%
    20:00 +20°C° 0 mm 5 mps 765 mmHg 52%
    21:00 +20°C° 0 mm 4 mps 766 mmHg 54%
    22:00 +20°C° 0 mm 4 mps 767 mmHg 55%
    23:00 +19°C° 0 mm 4 mps 767 mmHg 57%

    27 March, Wednesday

    Time Temperature Precipitation Wind Pressure Humidity
    00:00 +19°C° 0 mm 4 mps 767 mmHg 59%
    01:00 +19°C° 0 mm 3 mps 767 mmHg 60%
    02:00 +19°C° 0 mm 3 mps 767 mmHg 61%
    03:00 +19°C° 0 mm 3 mps 766 mmHg 61%
    04:00 +19°C° 0 mm 3 mps 766 mmHg 61%
    05:00 +20°C° 0 mm 3 mps 767 mmHg 62%
    06:00 +20°C° 0 mm 3 mps 767 mmHg 62%
    07:00 +20°C° 0 mm 3 mps 768 mmHg 62%
    08:00 +20°C° 0 mm 3 mps 768 mmHg 60%
    09:00 +21°C° 0 mm 3 mps 768 mmHg 57%
    10:00 +22°C° 0 mm 3 mps 768 mmHg 55%
    11:00 +22°C° 0 mm 4 mps 768 mmHg 54%
    12:00 +23°C° 0 mm 4 mps 767 mmHg 53%
    13:00 +23°C° 0 mm 4 mps 767 mmHg 52%
    14:00 +23°C° 0 mm 4 mps 767 mmHg 53%
    15:00 +23°C° 0 mm 4 mps 766 mmHg 55%
    16:00 +23°C° 0 mm 4 mps 766 mmHg 56%
    17:00 +22°C° 0 mm 3 mps 766 mmHg 58%
    18:00 +22°C° 0 mm 3 mps 767 mmHg 59%
    19:00 +21°C° 0 mm 3 mps 767 mmHg 61%
    20:00 +22°C° 0 mm 3 mps 767 mmHg 61%
    21:00 +22°C° 0 mm 3 mps 767 mmHg 62%
    22:00 +22°C° 0 mm 3 mps 767 mmHg 62%
    23:00 +21°C° 0 mm 3 mps 767 mmHg 64%

    28 March, Thursday

    Time Temperature Precipitation Wind Pressure Humidity
    00:00 +21°C° 0 mm 2 mps 766 mmHg 67%
    01:00 +21°C° 0 mm 2 mps 765 mmHg 69%
    02:00 +21°C° 0 mm 2 mps 765 mmHg 70%
    03:00 +20°C° 0 mm 2 mps 765 mmHg 70%
    04:00 +20°C° 0 mm 2 mps 765 mmHg 71%
    05:00 +20°C° 0 mm 2 mps 765 mmHg 72%
    06:00 +21°C° 0 mm 1 mps 765 mmHg 73%
    07:00 +21°C° 0 mm 1 mps 765 mmHg 74%
    08:00 +23°C° 0 mm 1 mps 765 mmHg 68%
    09:00 +25°C° 0 mm 2 mps 765 mmHg 62%
    10:00 +26°C° 0 mm 2 mps 765 mmHg 56%
    11:00 +26°C° 0 mm 2 mps 764 mmHg 57%
    12:00 +26°C° 0 mm 3 mps 763 mmHg 59%
    13:00 +26°C° 0 mm 4 mps 762 mmHg 60%
    14:00 +26°C° 0 mm 4 mps 762 mmHg 61%
    15:00 +27°C° 0 mm 5 mps 761 mmHg 61%
    16:00 +27°C° 0 mm 5 mps 761 mmHg 61%
    17:00 +26°C° 0 mm 5 mps 761 mmHg 65%
    18:00 +25°C° 0 mm 5 mps 761 mmHg 69%
    19:00 +23°C° 0 mm 5 mps 762 mmHg 73%
    20:00 +23°C° 0 mm 4 mps 762 mmHg 74%
    21:00 +23°C° 0 mm 4 mps 762 mmHg 76%
    22:00 +23°C° 0 mm 4 mps 762 mmHg 77%
    23:00 +22°C° 0 mm 4 mps 761 mmHg 78%

    29 March, Friday

    Time Temperature Precipitation Wind Pressure Humidity
    00:00 +22°C° 0 mm 3 mps 761 mmHg 80%
    01:00 +21°C° 0 mm 2 mps 760 mmHg 82%
    02:00 +21°C° 0 mm 2 mps 760 mmHg 82%
    03:00 +21°C° 0 mm 2 mps 759 mmHg 83%
    04:00 +20°C° 0 mm 2 mps 759 mmHg 84%
    05:00 +21°C° 0 mm 2 mps 759 mmHg 84%
    06:00 +21°C° 0 mm 2 mps 759 mmHg 83%
    07:00 +21°C° 0 mm 2 mps 759 mmHg 83%
    08:00 +24°C° 0 mm 3 mps 759 mmHg 75%
    09:00 +25°C° 0 mm 3 mps 758 mmHg 67%
    10:00 +27°C° 0 mm 3 mps 758 mmHg 59%
    11:00 +27°C° 0 mm 3 mps 757 mmHg 59%
    12:00 +27°C° 0 mm 3 mps 756 mmHg 59%
    13:00 +27°C° 0 mm 3 mps 755 mmHg 59%
    14:00 +28°C° 0.1 mm 4 mps 755 mmHg 58%
    15:00 +28°C° 0.1 mm 4 mps 755 mmHg 57%
    16:00 +29°C° 0.1 mm 4 mps 754 mmHg 55%
    17:00 +28°C° 1.8 mm 4 mps 754 mmHg 62%
    18:00 +26°C° 1.8 mm 3 mps 755 mmHg 69%
    19:00 +25°C° 1.8 mm 3 mps 755 mmHg 76%
    20:00 +24°C° 0 mm 3 mps 755 mmHg 75%
    21:00 +24°C° 0 mm 3 mps 755 mmHg 75%
    22:00 +22°C° 0 mm 3 mps 755 mmHg 75%
    23:00 +22°C° 0 mm 3 mps 755 mmHg 75%
    Show more